Tracking 28790 objects as of 19-Apr-2024
HD Live streaming from Space Station
objects crossing your sky now

INSAT 3DR

Track INSAT 3DR now!
INSAT 3DR is classified as:


NORAD ID: 41752
Int'l Code: 2016-054A
Perigee: 35,746.4 km
Apogee: 35,841.0 km
Inclination: 0.1 °
Period: 1,436.1 minutes
Semi major axis: 42164 km
RCS: Unknown
Launch date: September 8, 2016
Source: India (IND)
Launch site: SRIHARIKOTA (SRI)

INSAT-3DR is an advanced meteorological satellite of India configured with an imaging System and an Atmospheric Sounder.
Your satellite tracking list
Your tracking list is empty




NASA's NSSDC Master Catalog

Two Line Element Set (TLE):
1 41752U 16054A   24108.68983127 -.00000085  00000-0  00000-0 0  9998
2 41752   0.1378  88.2091 0011226 188.9092 251.5206  1.00271955 27894
Source of the keplerian elements: AFSPC